Simultaneous Nadir Overpasses (SNOs) Predictions

Prediction of SNOs between NOAA-19 and NPP Satellite Orbit:

Table of predicted SNOs for the next 14.0 days since TLE Epoch: 6/9/2012
Index Date (NOAA-19) Time (NOAA-19) NOAA-19 Lat,Lon Date (NPP) Time (NPP) NPP Lat,Lon Distance(km) Time Diff (sec)
1 06/21/2012 05:42:42 -80.68,-133.55 06/21/2012 05:43:56 -80.68,-133.38 3.11 74
2 06/21/2012 06:33:36 80.64, 34.48 06/21/2012 06:34:38 80.64, 34.49 0.21 62
3 06/21/2012 07:24:43 -80.62,-157.95 06/21/2012 07:25:22 -80.61,-157.81 2.68 39
4 06/21/2012 08:15:37 80.55, 10.41 06/21/2012 08:16:04 80.55, 10.39 0.23 27
5 06/21/2012 09:06:44 -80.53, 177.97 06/21/2012 09:06:48 -80.53, 178.09 2.28 4
6 06/21/2012 09:57:38 80.46, -13.69 06/21/2012 09:57:30 80.46, -13.73 0.65 8
7 06/21/2012 10:48:45
